Home > Weather > Giessen > Past weeks

Flag for Germany Weather for the Past 2 Weeks in Giessen, Hesse, Germany

Now
39 °F

Passing clouds.


Feels Like: 39 °F
Forecast: 32 / 39 °F
Wind: 1 mph from North

Location: Frankfurt-M-Flughafen Airport

Current Time: Feb 15, 2016 at 12:27:03 AM

Latest Report: Feb 14, 2016 at 11:50 PM


Visibility: N/A

Pressure: 29.47 "Hg

Humidity: 87%

Dew point: 36 °F

Location of GiessenLocation

Historic Weather in Giessen — Graph

°F

Giessen Temperature Yesterday

Maximum temperature yesterday: 48 °F (at 11:50 AM)
Minimum temperature yesterday: 39 °F (at 11:20 PM)
Average temperature yesterday: 44 °F

High & Low Weather Summary for the Past Weeks

 TemperatureHumidityPressure
High57 °F (Feb 1, 3:50 AM)100% (Jan 31, 7:50 PM)30.33 "Hg (Jan 31, 7:50 PM)
Low30 °F (Feb 12, 6:20 AM)59% (Feb 6, 3:20 PM)29.00 "Hg (Feb 13, 11:50 PM)
Average43 °F81%29.75 "Hg
* Reported Jan 30 11:20 PM — Feb 14 11:20 PM, Giessen, Weather by CustomWeather, © 2016

Note: Actual official high and low records may vary slightly from our data, if they occured in-between our weather recording intervals... More about our weather records

Advertising

Giessen Weather History for the Previous 24 Hours

 ConditionsComfort  
Time TempWeatherWind HumidityBarometerVisibility
11:20 PM
Sun, Feb 14
39 °FPartly cloudy.5 mph93%29.45 "HgN/A
10:50 PM41 °FPassing clouds.6 mph87%29.45 "HgN/A
10:20 PM41 °FPassing clouds.6 mph87%29.42 "HgN/A
9:50 PM41 °FPassing clouds.5 mph81%29.42 "HgN/A
9:20 PM41 °FPassing clouds.3 mph87%29.42 "HgN/A
8:50 PM41 °FPassing clouds.3 mph81%29.39 "HgN/A
8:20 PM41 °FPassing clouds.5 mph81%29.39 "HgN/A
7:50 PM41 °FPassing clouds.5 mph81%29.36 "HgN/A
7:20 PM41 °FPassing clouds.5 mph81%29.36 "HgN/A
6:50 PM43 °FPassing clouds.6 mph76%29.36 "HgN/A
6:20 PM43 °FPartly cloudy.7 mph76%29.33 "HgN/A
5:50 PM43 °FLight rain. Partly cloudy.9 mph76%29.33 "HgN/A
5:20 PM43 °FBroken clouds.8 mph76%29.30 "HgN/A
4:50 PM45 °FLight rain. Broken clouds.8 mph71%29.30 "HgN/A
4:20 PM45 °FBroken clouds.8 mph71%29.27 "HgN/A
3:50 PM45 °FPartly sunny.7 mph71%29.27 "HgN/A
3:20 PM45 °FBroken clouds.10 mph66%29.24 "HgN/A
2:50 PM45 °FBroken clouds.10 mph71%29.21 "HgN/A
2:20 PM45 °FBroken clouds.12 mph71%29.21 "HgN/A
1:50 PM45 °FLight rain. Scattered clouds.12 mph71%29.21 "HgN/A
1:20 PM45 °FBroken clouds.13 mph76%29.18 "HgN/A
12:50 PM46 °FBroken clouds.12 mph76%29.18 "HgN/A
12:20 PM46 °FPartly sunny.15 mph71%29.18 "HgN/A
11:50 AM48 °FPartly sunny.15 mph71%29.15 "HgN/A
11:20 AM46 °FPartly sunny.13 mph76%29.15 "HgN/A
10:50 AM46 °FPartly sunny.12 mph76%29.15 "HgN/A
10:20 AM45 °FPartly sunny.12 mph87%29.12 "HgN/A
9:50 AM45 °FScattered clouds.9 mph87%29.12 "HgN/A
9:20 AM45 °FBroken clouds.13 mph87%29.12 "HgN/A
8:20 AM43 °FSprinkles. Broken clouds.10 mph93%29.12 "HgN/A
7:50 AM43 °FSprinkles. Partly sunny.10 mph93%29.09 "HgN/A
7:20 AM43 °FSprinkles. Partly cloudy.9 mph93%29.09 "HgN/A
6:50 AM43 °FLight rain. Partly cloudy.16 mph93%29.09 "HgN/A
6:20 AM45 °FPartly cloudy.12 mph87%29.09 "HgN/A
5:50 AM45 °FPartly cloudy.14 mph87%29.06 "HgN/A
5:20 AM45 °FLight rain. Passing clouds.14 mph87%29.06 "HgN/A
4:50 AM45 °FLight rain. Passing clouds.13 mph93%29.03 "HgN/A
4:20 AM45 °FLight rain. Passing clouds.12 mph93%29.03 "HgN/A
3:50 AM45 °FLight rain. Passing clouds.10 mph93%29.03 "HgN/A
3:20 AM45 °FLight rain. Passing clouds.9 mph93%29.03 "Hg4 mi
2:20 AM45 °FLight rain. Partly cloudy.13 mph93%29.03 "HgN/A
1:50 AM45 °FLight rain. Passing clouds.15 mph93%29.00 "HgN/A
1:20 AM45 °FLight rain. Partly cloudy.12 mph93%29.00 "HgN/A
12:50 AM45 °FLight rain. Partly cloudy.12 mph93%29.00 "HgN/A
12:20 AM45 °FLight rain. Partly cloudy.13 mph93%29.00 "HgN/A
Weather by CustomWeather, © 2016

See weather overviewHow to use our weather pages